2024/02/11 00:00:00,53.7,-2.2
2024/02/11 00:10:00,54.1,-2.1
2024/02/11 00:20:00,54.3,-2.2
2024/02/11 00:30:00,54.0,-2.6
2024/02/11 00:40:00,53.8,-2.4
2024/02/11 00:50:00,53.7,-2.4
2024/02/11 01:00:00,53.7,-2.6
2024/02/11 01:10:00,53.7,-2.5
2024/02/11 01:20:00,53.7,-2.4
2024/02/11 01:30:00,54.9,-2.4
2024/02/11 01:40:00,55.2,-2.3
2024/02/11 01:50:00,55.3,-2.6
2024/02/11 02:00:00,55.6,-1.7
2024/02/11 02:10:00,55.5,-2.3
2024/02/11 02:20:00,55.3,-2.6
2024/02/11 02:30:00,55.1,-2.7
2024/02/11 02:40:00,54.9,-2.8
2024/02/11 02:50:00,54.9,-3.0
2024/02/11 03:00:00,54.9,-2.8
2024/02/11 03:10:00,54.9,-3.0
2024/02/11 03:20:00,54.9,-3.1
2024/02/11 03:30:00,54.9,-3.3
2024/02/11 03:40:00,54.9,-3.2
2024/02/11 03:50:00,54.9,-2.7
2024/02/11 04:00:00,55.2,-2.7
2024/02/11 04:10:00,55.7,-2.7
2024/02/11 04:20:00,55.7,-2.6
2024/02/11 04:30:00,55.7,-2.7
2024/02/11 04:40:00,55.6,-2.4
2024/02/11 04:50:00,55.6,-2.5
2024/02/11 05:00:00,55.6,-2.8
2024/02/11 05:10:00,56.0,-2.5
2024/02/11 05:20:00,56.3,-2.4
2024/02/11 05:30:00,56.4,-2.7
2024/02/11 05:40:00,56.2,-2.3
2024/02/11 05:50:00,56.4,-2.4
2024/02/11 06:00:00,56.4,-2.7
2024/02/11 06:10:00,56.4,-3.0
2024/02/11 06:20:00,56.4,-3.4
2024/02/11 06:30:00,56.3,-3.4
2024/02/11 06:40:00,56.1,-3.2
2024/02/11 06:50:00,56.1,-3.3
2024/02/11 07:00:00,55.9,-3.2
2024/02/11 07:10:00,55.9,-3.3
2024/02/11 07:20:00,55.8,-3.4
2024/02/11 07:30:00,55.7,-3.6
2024/02/11 07:40:00,55.7,-3.2
2024/02/11 07:50:00,55.7,-3.3
2024/02/11 08:00:00,55.8,-2.9
2024/02/11 08:10:00,55.8,-2.2
2024/02/11 08:20:00,55.8,-2.2
2024/02/11 08:30:00,55.7,-1.5
2024/02/11 08:40:00,55.8,-1.4
2024/02/11 08:50:00,55.8,-1.1
2024/02/11 09:00:00,55.8,-0.6
2024/02/11 09:10:00,55.7, 0.1
2024/02/11 09:20:00,55.6, 0.1
2024/02/11 09:30:00,55.5, 0.5
2024/02/11 09:40:00,54.9, 1.1
2024/02/11 09:50:00,54.4, 1.5
2024/02/11 10:00:00,53.7, 1.6
2024/02/11 10:10:00,54.2, 1.9
2024/02/11 10:20:00,54.5, 2.2
2024/02/11 10:30:00,54.6, 1.8
2024/02/11 10:40:00,54.7, 2.2
2024/02/11 10:50:00,54.5, 2.4
2024/02/11 11:00:00,54.5, 3.0
2024/02/11 11:10:00,54.4, 3.9
2024/02/11 11:20:00,54.6, 3.9
2024/02/11 11:30:00,54.3, 3.9
2024/02/11 11:40:00,54.3, 3.6
2024/02/11 11:50:00,54.1, 4.0
2024/02/11 12:00:00,53.9, 3.5
2024/02/11 12:10:00,53.7, 3.7
2024/02/11 12:20:00,53.0, 3.9
2024/02/11 12:30:00,52.2, 4.3
2024/02/11 12:40:00,51.8, 4.0
2024/02/11 12:50:00,51.3, 3.8
2024/02/11 13:00:00,51.0, 3.4
2024/02/11 13:10:00,50.9, 3.4
2024/02/11 13:20:00,50.6, 3.0
2024/02/11 13:30:00,50.5, 3.7
2024/02/11 13:40:00,50.6, 3.6
2024/02/11 13:50:00,50.8, 2.6
2024/02/11 14:00:00,50.9, 2.2
2024/02/11 14:10:00,50.7, 2.9
2024/02/11 14:20:00,50.3, 3.0
2024/02/11 14:30:00,50.1, 3.2
2024/02/11 14:40:00,50.2, 3.2
2024/02/11 14:50:00,49.8, 2.5
2024/02/11 15:00:00,49.8, 2.2
2024/02/11 15:10:00,50.2, 1.7
2024/02/11 15:20:00,50.1, 1.4
2024/02/11 15:30:00,50.2, 1.2
2024/02/11 15:40:00,50.7, 0.7
2024/02/11 15:50:00,51.7, 0.1
2024/02/11 16:00:00,52.2,-0.1
2024/02/11 16:10:00,52.3, 0.1
2024/02/11 16:20:00,52.4, 0.3
2024/02/11 16:30:00,52.3,-0.3
2024/02/11 16:40:00,52.3,-0.3
2024/02/11 16:50:00,52.2,-0.2
2024/02/11 17:00:00,52.2,-0.6
2024/02/11 17:10:00,52.1,-0.5
2024/02/11 17:20:00,52.1,-0.6
2024/02/11 17:30:00,52.1,-0.7
2024/02/11 17:40:00,52.0,-0.8
2024/02/11 17:50:00,51.9,-1.0
2024/02/11 18:00:00,51.9,-1.0
2024/02/11 18:10:00,51.8,-1.1
2024/02/11 18:20:00,51.8,-1.3
2024/02/11 18:30:00,51.8,-1.0
2024/02/11 18:40:00,51.8,-1.0
2024/02/11 18:50:00,51.8,-1.0
2024/02/11 19:00:00,51.8,-1.2
2024/02/11 19:10:00,51.9,-1.3
2024/02/11 19:20:00,51.9,-1.4
2024/02/11 19:30:00,51.8,-1.4
2024/02/11 19:40:00,51.8,-1.5
2024/02/11 19:50:00,51.8,-1.5
2024/02/11 20:00:00,51.8,-1.7
2024/02/11 20:10:00,51.8,-1.7
2024/02/11 20:20:00,51.8,-2.2
2024/02/11 20:30:00,51.8,-2.2
2024/02/11 20:40:00,51.8,-2.1
2024/02/11 20:50:00,51.9,-1.9
2024/02/11 21:00:00,51.9,-2.1
2024/02/11 21:10:00,51.9,-2.0
2024/02/11 21:20:00,52.0,-2.1
2024/02/11 21:30:00,52.0,-2.2
2024/02/11 21:40:00,52.0,-2.3
2024/02/11 21:50:00,52.0,-2.2
2024/02/11 22:00:00,52.0,-2.7
2024/02/11 22:10:00,51.9,-2.1
2024/02/11 22:20:00,51.9,-2.1
2024/02/11 22:30:00,51.9,-2.2
2024/02/11 22:40:00,51.9,-2.2
2024/02/11 22:50:00,51.9,-2.2
2024/02/11 23:00:00,52.5,-2.2
2024/02/11 23:10:00,52.9,-2.2
2024/02/11 23:20:00,53.3,-2.2
2024/02/11 23:30:00,53.7,-2.2
2024/02/11 23:40:00,53.8,-2.7
2024/02/11 23:50:00,54.3,-2.3
